Airfield :
LOGIN :

Register | Disclaimer

   EN    FR    IT 

 










Legend :    VFR   Marginal VFR   IFR   Intensive IFR   Very Intensive IFR
Visi :
Ceiling :
>= 8 km
>= 3000ft
5 to 8 km
1000 to 3000 ft
1500m to 5 km
500 to 1000 ft
800 to 1500m
200 to 500 ft
< 800m
< 200 ft
Symbols :   Thunderstorms  Fog  Heavy snow  Heavy precipitations  Wind > 20 kt
SIGMETs :     Misc.  Thunderstorms  Icing  Turbulence  Mountain Waves  Volcanic Ashes






- Airport Elevation : 336 ft
- IATA code : GCI


EGJB - Guernsey

CURRENT METAR :
  • 221220Z 31009KT 9999 FEW027 BKN035 13/06 Q1025

EXPIRED METARs :
  • 221150Z 30011KT 9999 FEW025 BKN037 13/05 Q1025
  • 221120Z 31009KT 290V350 9999 FEW025 BKN043 13/06 Q1025
  • 221050Z 30009KT 9999 FEW025 BKN038 12/06 Q1025
  • 221020Z 31008KT 9999 VCSH SCT025 BKN038 12/06 Q1025
  • 220950Z 31008KT 9999 -SHRA FEW025 BKN032 12/07 Q1024

TAF TAF EGJB
Valid from the 22 at 12:00 until the 22 at 21:00 UTC


221055Z 2212/2221 30009KT 9999 FEW025 BKN035
ATIS : +44 1481 238 957



MET'MAP, your aeronautical weather chart ! - Copyright ORBIFLY December 2007 - Disclaimer

ORBIFLY MET'MAP TEAM :

Programming & Development : Alexandra Zaïnal
Concept & original design : Baudouin d'Aumeries
Assistance for programming : Marc-Olivier Méhu
Technical & hardware support : Manuel Goepfert

Contact : metmap@orbifly.com




SOURCES & CREDITS :

   NOAA